MIDAS 4 DEB, 2009

Orbit data source: Space-Track

MIDAS 4 DEB, 2009 is space debris in LEO originally from a launch on Sat, 21 Oct 1961 UTC launched from the Air Force Western Test Range (AFWTR). Debris objects in space refer to the collection of defunct objects orbiting the Earth. Examples of debris include non-operational satellites, rocket bodies, and fragments generated from explosions, collisions, or faulty payload assembly.

Loading next visibility...
Identifier
2009, 1961-028E
Orbit
LEO
Country
Flag of USUS
Related business
Manufacturer
Unknown
Mission
Spacecraft
Bus & Motor
Unknown
Mass
~10 kg wet, ~10 kg dry
Launch date (UTC)
1961-10-21 (64 years ago)
Launch vehicle
Unknown
Launch site
Air Force Western Test Range (AFWTR)
Object type
Payload
Rocket body
Debris
Shape & HBR
Unknown shape, 1.1 m
Radar Cross Section
Medium (>0.1 m² and <1 m²)

Expand to show TLE details & history
Last TLE update: 19 hours ago

TLE from 19 hours ago
0 MIDAS 4 DEB
1 02009U 61028E   26034.40877576 -.00000004  00000-0 -11260-3 0  9996
2 02009  95.8189 201.8395 0122494  28.7595 331.9944  8.68991242378380
Epoch: 2026-02-03T09:48Z
TLE epoch observation values (Epoch: 2026-02-03T09:48:38.225Z)
Latitude
-0.0001°
Longitude
-78.90989°
Altitude
3,509.931 km
Speed
6.384 km/s
True Right ascension
13h 27m 21s
True Declination
0° 00' 00"
Sunlit
Object was in daylight at epoch
Visualization orbit readout
Latitude
Unknown
Longitude
Unknown
Altitude
Unknown
Speed
Unknown
Apparent Right ascension
Unknown
Apparent Declination
Unknown
Sunlit
N/A
Visualization observer readout
Local Sidereal Time
06:49:52
Azimuth
Unknown
Elevation
Unknown
Doppler factor
Unknown
Orbital elements
Apogee altitude
3,735.792 km
Perigee altitude
3,491.011 km
Semi-major axis
9,991.538 km
Eccentricity
0.01225
Inclination
95.8189°
RAAN
201.8395°
Arg. of periapsis
28.7595°
True anomaly
331.32628°
Mean anomaly
331.9944°
Eccentric anomaly
331.66125°
Mean motion
2.17317 °/min
Orbital period
165.66 mins
BSTAR
-0.0001126
Loading maneuver chart data...
Computing Atmospheric mass density...
Loading historical data...
Loading historical data...
Loading historical data...
Loading historical data...
Loading historical data...
Loading historical data...
Loading historical data...

Documentation

Showing up to 5 results
|